Weather in Zorino

Russia / Kaliningrad Oblast     54°39′27″N   21°13′01″E
temp.,
°C
wind,
m/s
gust,
m/s
humid.,
%
clouds,
%
prec.,
mm/h
press.,
hPa
HPBL,
m
10 may, mon
mon1023:00+11sse515835 0.0 1016403
02:00+10sse515815 0.0 1016414
05:00+9sse413895 0.0 1016314
08:00+13sse513762 0.0 1017431
11:00+19sse7116296 0.0 1017743
14:00+21sse710567 0.0 10161029
17:00+21sse6116394 0.0 10161032
20:00+17sse51375100 0.0 1017657
11 may, tue
tue1123:00+15se5147966 0.0 1017526
02:00+13se5157983 0.0 1017471
05:00+12se5148245 0.0 1017420
08:00+15se61572100 0.0 1017606
11:00+19se7145999 0.0 1017917
14:00+22se7125557 0.0 10161155
17:00+21se713605 0.0 10151125
20:00+16se614670 0.0 1015705
12 may, wed
wed1223:00+13se516630 0.0 1016553
02:00+12se516730 0.0 1015555
05:00+11ese414820 0.0 1015422
08:00+16ese513740 0.0 1015624
11:00+20ese711615 0.0 10141321
14:00+21ese710473 0.0 10141605
17:00+19ese510565 0.0 10131534
20:00+14ese41074100 0.0 1013369
13 may, thu
thu1323:00+10e310828 0.0 1012204
02:00+9e228697 0.0 101014
05:00+11nne1175100 0.0 100829
08:00+10nw2589100 0.4 1005206
11:00+14n118293 0.3 1003743
14:00+14ssw238588 2.4 1002509
17:00+12s379299 2.6 1002272
20:00+12sse2591100 2.6 1003139
14 may, fri
fri1423:00+11sse389698 0.1 1003245
02:00+9se259897 0.1 1003120
05:00+10sse1299100 1.0 100351
08:00+11sse1299100 2.1 1003123
11:00+13sse239499 0.8 1004342
14:00+15wsw238439 1.3 1004638
17:00+17nw227157 0.4 1004678
20:00+12nw3692100 0.6 1006225